Torna al catalogo

ESTCUBE 1

AttivoScienzaSSO
NORAD 39161·PAYLOAD·🇪🇪 Estonia

Lanciato May 7, 2013 da Guiana Space Centre

Loading…

Prossimi Passaggi (prossime 24 ore)

TLE

AggiornatoSource: Space-Track

Epoca: Sep 13, 2026, 14:30 UTC

1 39161U 13021C   26256.60448119  .00001080  00000-0  14377-3 0  9995
2 39161  97.7206 307.6560 0009665  87.5753 272.6567 14.81612276718112

Traccia ESTCUBE 1 in tempo reale con AllMySat

Download on the App Store